Theta_e
319 313 312 310 301 305 300 304 303 303 304 309 310 308 306 312 312 309 330 334 339 339 341 341 342 339 336 334 332 330 329 329 327 327 326 327 327 327 326 325 325 325 325 326 326 328 328 326 325
312 312 310 306 300 298 301 307 301 302 307 309 309 308 307 311 322 326 328 334 339 339 339 338 339 338 335 332 331 330 328 327 326 326 326 325 326 325 325 325 324 325 326 327 326 326 324 322 322
315 311 303 303 301 298 301 303 302 304 306 308 307 309 309 315 324 327 333 336 338 337 338 337 338 336 334 332 330 329 327 326 326 326 325 324 324 324 324 324 325 325 326 324 325 326 322 322 321
308 306 303 297 296 305 306 309 302 301 304 308 307 306 317 323 324 331 334 336 337 337 337 336 336 335 333 331 330 328 326 325 325 324 324 324 324 324 324 324 324 323 323 324 323 323 323 322 323
307 303 297 296 298 302 305 307 304 301 302 307 306 306 314 324 332 333 331 335 335 336 335 334 336 335 332 331 328 327 325 325 324 323 323 323 323 323 324 323 322 322 323 323 322 322 322 322 321
300 301 293 292 296 302 306 307 305 301 301 305 303 304 316 326 329 331 331 332 337 335 335 334 331 332 332 330 327 325 323 323 322 320 321 320 320 321 322 323 323 322 321 321 322 321 321 319 319
298 296 292 294 295 298 303 306 300 302 300 302 307 302 317 322 330 331 331 332 334 335 333 331 329 328 328 328 326 324 322 321 320 318 319 318 318 318 319 320 321 322 321 321 322 321 321 320 319
299 296 291 293 293 295 303 302 303 302 301 307 308 302 311 322 329 331 331 331 333 333 332 330 327 325 322 320 321 322 321 320 318 316 315 316 316 317 317 319 318 319 320 321 321 322 322 321 318
302 291 289 291 293 296 302 299 302 302 299 302 307 312 321 327 327 329 328 330 330 331 330 328 327 326 322 317 316 318 319 318 316 313 313 312 313 314 313 314 315 317 317 319 322 323 321 322 319
295 290 291 296 296 295 298 298 297 298 299 298 304 316 325 324 325 324 324 326 328 328 328 327 327 325 322 320 313 312 312 310 310 310 309 312 312 310 312 311 315 316 318 320 321 320 321 318 315
296 290 295 296 298 298 296 296 298 296 295 299 300 313 321 320 321 321 323 324 326 327 327 327 326 324 321 316 314 311 310 309 308 309 310 310 312 310 310 311 312 312 316 314 316 316 317 315 314
292 296 297 298 299 296 294 297 295 295 297 301 301 311 320 318 320 321 321 323 324 325 326 326 326 323 320 317 312 310 309 309 308 308 310 310 310 310 310 310 311 312 314 313 313 315 316 314 313
295 296 297 298 298 296 297 294 294 295 298 300 304 312 318 318 320 322 323 323 324 325 326 325 325 322 321 317 313 309 308 308 308 308 310 311 310 309 310 310 311 312 313 314 312 315 315 314 312
297 296 295 297 297 297 294 294 294 295 298 298 300 302 311 317 319 321 322 321 324 325 324 325 325 322 321 317 312 309 308 308 307 308 309 311 311 310 310 310 311 312 314 314 315 315 315 312 309
295 291 293 294 295 294 294 291 291 296 297 296 297 298 303 309 317 320 322 322 324 326 326 324 325 323 319 317 312 310 309 309 307 308 309 311 312 310 310 310 310 311 316 314 315 315 314 311 311
290 290 285 293 295 295 293 286 294 297 296 295 295 296 298 300 309 317 323 323 324 325 325 324 325 322 319 317 312 310 309 308 307 307 309 311 311 312 310 310 310 311 316 314 314 314 312 311 312
288 282 285 289 295 294 292 287 294 298 295 294 296 297 297 299 300 310 319 323 323 324 325 324 323 321 318 317 313 309 309 308 307 307 308 310 311 312 310 310 310 312 315 313 313 313 313 311 310
282 283 286 285 291 293 290 289 293 296 294 293 294 295 297 298 299 303 313 322 323 324 325 325 325 322 319 316 312 309 308 308 307 307 308 311 311 311 310 310 310 311 313 312 313 313 314 310 311
288 286 285 288 292 290 289 290 292 294 295 292 292 292 294 295 299 302 308 317 321 323 324 324 323 322 320 315 309 307 306 306 305 307 309 310 311 311 310 309 310 311 312 314 312 313 312 310 311
287 285 285 289 292 290 289 288 291 293 294 295 294 294 294 294 296 298 300 310 318 320 323 324 323 322 320 316 311 308 308 306 306 307 308 310 311 311 310 309 309 311 312 312 314 313 311 310 311
286 285 285 286 289 290 285 284 287 291 294 295 296 297 297 297 296 296 297 300 312 317 321 323 323 321 320 316 312 309 308 306 304 305 306 308 311 311 310 310 310 310 312 312 312 311 310 311 309
279 288 288 288 286 280 285 278 286 290 291 293 295 296 296 297 297 298 297 297 300 314 320 322 323 322 321 316 311 308 306 304 304 305 305 307 310 311 311 310 310 310 311 312 312 313 311 310 307
281 287 286 286 286 284 284 281 285 289 288 292 295 295 297 297 298 297 297 299 300 303 315 320 323 322 321 317 311 308 306 305 306 306 305 306 308 310 311 310 309 310 311 312 312 311 311 311 310
286 285 285 285 284 277 282 282 281 285 289 291 295 297 297 298 298 298 298 300 300 301 311 318 321 321 320 317 310 308 306 305 305 305 304 306 306 308 309 310 309 310 311 312 312 312 311 311 311
284 280 274 275 275 274 283 281 283 288 292 294 295 296 297 298 298 298 298 297 299 300 308 315 319 319 319 317 310 309 308 306 305 304 304 305 306 306 307 308 309 309 311 313 313 312 311 311 310
280 279 275 271 272 275 282 277 282 291 293 295 294 294 297 297 297 299 299 298 299 302 308 313 316 318 319 317 310 310 310 307 306 306 305 305 306 307 308 309 309 309 311 312 313 311 311 311 310
279 276 283 277 279 275 277 283 288 291 292 293 292 295 294 296 297 298 299 299 299 302 307 313 315 318 318 316 311 311 311 307 306 306 306 306 306 308 309 309 309 309 310 311 312 309 309 310 310
281 285 276 277 272 272 276 279 280 286 288 291 292 292 293 296 297 296 296 297 298 301 308 313 315 316 317 316 312 311 311 308 307 306 305 305 306 308 309 309 309 309 309 310 311 309 310 310 309
280 279 279 280 279 274 271 276 287 288 288 289 291 292 291 294 296 294 294 294 296 299 307 312 313 314 315 314 313 311 310 307 307 305 305 305 306 308 308 309 309 308 308 310 310 309 310 309 309
281 280 281 275 274 278 278 278 289 288 289 291 291 291 289 291 293 295 293 293 295 298 306 310 312 312 313 313 312 311 308 307 305 304 304 305 306 308 309 309 309 308 308 309 309 308 309 308 308
Wind_Speed
14 11 4 3 3 5 10 13 2 1 3 7 6 6 6 9 5 5 6 5 19 17 14 12 18 15 13 13 13 12 11 11 11 10 10 10 10 11 11 10 10 9 9 9 10 11 12 12 12
8 10 3 3 5 8 10 15 6 4 8 5 5 3 5 7 8 9 5 10 19 16 14 11 17 15 14 13 13 12 12 11 10 10 10 10 10 10 9 10 10 10 11 12 11 12 11 12 11
10 8 2 4 7 11 11 6 5 8 6 1 2 1 5 5 9 8 9 15 16 13 13 13 16 15 14 14 13 12 12 11 10 10 10 10 10 9 9 10 11 11 12 11 12 12 12 12 12
5 3 3 5 13 14 18 9 8 4 4 2 3 5 7 3 4 9 8 18 14 14 13 15 15 15 15 14 13 12 12 11 10 11 11 10 10 10 10 11 12 11 12 12 14 15 14 14 14
3 4 5 7 13 16 18 4 7 6 6 8 5 4 6 4 12 11 8 16 15 13 13 13 14 15 15 14 13 13 12 11 11 11 11 11 10 11 11 11 10 11 13 13 14 14 14 14 13
3 3 6 9 14 17 14 7 1 4 8 2 3 6 6 9 10 9 5 14 16 15 13 12 10 13 13 14 13 13 11 11 11 10 10 10 10 10 10 11 11 12 12 14 15 15 13 12 13
3 5 10 12 14 17 13 4 2 6 8 7 3 4 5 8 12 11 5 12 16 15 13 11 8 9 11 13 13 12 11 11 11 10 10 8 8 8 8 10 10 11 13 13 14 12 10 9 10
4 5 13 13 11 17 16 2 3 5 9 7 6 4 6 10 14 9 3 8 12 12 12 11 11 8 7 7 12 11 11 11 11 10 7 5 6 5 6 10 9 10 10 11 11 12 13 8 6
4 4 9 14 13 14 12 2 3 3 5 2 2 6 9 16 12 9 6 6 7 9 11 10 10 10 10 9 7 9 10 10 10 7 4 3 2 4 8 5 4 5 5 7 12 18 18 18 1
6 5 10 10 12 8 12 7 3 5 6 6 4 7 13 13 13 15 16 11 11 10 7 10 8 8 10 9 7 7 6 5 5 5 4 2 6 3 3 2 1 4 8 5 16 17 14 11 6
8 10 13 15 11 7 6 10 9 7 9 10 8 15 15 9 14 15 16 15 11 10 6 8 7 7 8 8 4 3 3 3 3 5 3 2 2 3 2 2 1 2 7 4 6 8 6 8 5
17 16 15 16 12 5 6 7 11 10 10 7 6 5 14 14 13 14 14 14 15 10 8 9 9 7 7 5 5 5 4 3 3 3 3 3 2 2 3 2 3 4 3 5 5 4 7 8 7
18 15 17 14 14 9 7 10 12 11 10 9 4 7 12 11 11 10 12 9 14 13 11 9 9 7 6 7 4 5 4 4 5 4 2 2 3 2 3 2 3 4 4 4 5 5 6 7 6
11 13 14 12 14 16 10 16 9 9 10 12 6 7 8 12 13 11 12 13 17 14 14 12 11 8 7 6 7 5 5 4 4 5 4 2 3 2 3 2 4 5 3 4 4 4 4 5 5
15 19 18 17 11 12 4 16 18 18 13 14 11 11 10 10 12 15 13 14 14 14 15 15 14 8 8 8 7 5 5 5 4 4 5 4 3 2 3 3 4 2 3 6 5 5 6 6 5
10 13 15 4 19 14 10 19 8 17 18 19 12 11 11 12 11 12 14 15 15 9 14 15 14 10 9 7 6 5 5 4 4 4 4 4 3 4 3 3 4 0 4 4 4 4 5 5 5
9 13 16 15 18 13 18 13 14 20 13 20 18 15 12 14 12 11 14 16 16 13 13 15 14 11 9 8 6 6 7 5 4 4 4 5 4 2 4 4 3 1 3 4 5 4 4 5 5
9 18 18 24 11 15 15 21 11 13 8 13 11 12 15 15 16 14 15 17 16 16 12 15 13 13 10 6 5 5 5 5 5 4 5 6 4 3 5 5 3 1 3 4 4 4 4 4 5
21 25 24 18 12 21 18 17 17 15 16 12 9 8 9 9 12 18 17 17 17 17 15 17 17 17 12 9 8 6 6 4 4 4 7 6 5 4 5 4 3 1 4 5 6 4 3 3 3
24 27 32 22 22 10 14 16 13 14 15 15 12 13 11 9 10 9 14 15 19 20 18 18 19 19 16 11 9 5 7 4 4 4 6 5 6 5 4 5 4 3 3 3 5 4 1 2 2
24 29 23 23 16 18 4 11 15 15 16 15 18 17 14 17 14 10 11 15 16 19 20 20 20 20 18 14 9 7 5 5 4 4 4 4 6 6 5 4 4 3 4 4 3 3 2 2 2
26 20 24 21 16 21 6 20 19 12 20 25 25 21 18 16 12 15 13 14 16 17 18 19 20 20 18 17 13 17 12 11 5 7 5 5 6 6 5 5 4 4 2 4 3 2 2 2 3
28 18 23 26 21 19 21 16 25 10 19 22 16 25 22 20 17 16 14 20 18 16 16 18 19 20 20 18 15 13 11 6 8 7 9 6 5 7 6 6 5 4 2 4 5 3 2 2 3
19 14 22 19 18 17 26 20 19 22 28 10 18 17 21 20 18 17 14 18 20 17 16 17 20 21 21 19 18 17 16 13 12 10 9 7 5 5 6 6 5 5 3 4 4 3 3 1 4
19 11 8 12 11 15 20 18 28 9 18 17 19 12 11 15 17 17 17 12 19 20 19 17 20 21 21 21 18 18 17 16 17 15 11 11 7 5 6 6 6 4 4 5 4 5 4 3 4
20 17 9 16 10 26 18 14 25 22 31 24 7 7 8 11 10 15 18 12 20 21 21 20 21 21 22 22 20 17 15 11 11 13 11 9 9 8 8 6 6 6 6 5 5 4 3 5 4
5 21 16 24 21 8 7 21 21 17 17 11 10 14 12 9 6 9 12 12 17 20 21 22 21 21 21 22 18 17 15 15 13 13 12 9 9 8 9 7 7 7 6 6 6 4 5 5 4
19 9 12 11 10 11 7 23 15 14 24 13 10 10 10 9 8 8 6 8 11 15 18 20 20 21 21 20 18 16 15 15 14 13 14 12 11 11 11 9 7 7 7 6 6 5 5 6 3
9 14 12 10 16 5 2 7 3 7 4 2 9 1 2 5 8 8 8 7 8 9 15 17 17 17 17 18 17 17 15 15 15 13 13 13 13 13 12 11 8 7 7 6 6 6 6 7 6
20 21 21 14 22 17 12 9 3 4 6 6 7 4 5 6 8 7 9 9 8 11 13 14 15 15 17 17 16 16 15 15 15 14 14 14 14 12 13 11 9 8 8 7 7 7 6 7 7
Wind_Direction
300 308 313 285 246 220 258 256 215 257 259 44 39 27 337 39 29 107 77 123 116 125 126 133 122 123 122 116 110 105 100 93 86 79 72 65 57 54 50 42 36 30 25 19 13 13 11 3 352
300 297 268 273 247 252 251 238 147 240 71 59 52 311 283 91 79 112 92 119 119 126 135 129 119 122 122 117 112 107 100 94 87 80 74 68 63 58 53 49 40 30 25 23 15 16 2 2 359
256 264 266 224 235 252 266 64 357 67 58 17 154 70 4 86 105 120 107 116 121 128 120 119 120 128 125 120 117 111 104 96 90 83 77 69 65 63 53 44 38 30 23 18 10 11 3 360 356
304 189 247 252 267 248 248 300 81 344 119 96 285 112 82 346 118 108 158 118 123 109 118 123 130 133 129 125 122 115 105 99 92 83 75 67 63 53 45 40 35 33 27 21 14 9 4 3 5
217 267 245 256 250 266 284 298 25 348 291 172 200 157 96 73 93 122 151 112 117 121 123 125 138 135 131 129 124 114 108 102 93 85 76 68 58 47 37 43 38 33 27 21 17 13 14 14 8
277 221 249 250 250 252 249 267 281 233 269 63 175 272 92 127 125 121 141 121 121 129 131 133 133 131 131 128 121 114 112 105 96 89 83 72 64 56 44 35 34 30 29 23 18 13 14 19 18
250 278 247 255 271 291 298 104 185 263 256 241 132 231 112 162 119 123 208 129 128 126 129 127 128 120 116 116 114 114 114 107 97 91 84 78 72 66 56 42 35 32 27 22 18 12 20 24 16
305 258 262 262 262 266 283 26 21 298 266 349 129 222 163 144 110 121 177 103 124 132 138 149 137 143 120 110 108 109 111 111 104 96 98 120 124 115 67 42 29 31 28 21 14 4 353 357 345
275 258 248 249 249 265 275 240 277 98 316 287 156 51 101 114 120 134 154 122 129 137 151 148 155 149 136 123 118 112 115 122 118 119 158 217 210 83 95 71 22 21 4 350 18 25 34 28 146
213 221 247 261 278 293 323 326 320 311 242 253 150 84 109 127 151 160 169 164 159 155 170 147 165 151 146 133 168 146 152 168 156 153 187 80 81 77 78 134 239 312 341 359 38 35 29 23 25
216 244 269 279 283 324 303 318 313 287 288 272 221 159 147 160 174 175 176 179 167 164 157 157 178 141 138 129 173 139 160 111 107 116 121 74 97 184 182 156 73 52 45 15 49 40 33 32 18
251 262 269 277 286 321 279 295 276 274 256 288 2 111 153 174 188 184 181 179 178 167 170 183 172 143 143 133 143 150 139 137 134 124 115 142 98 72 48 42 57 50 54 31 45 37 38 27 17
257 255 260 286 292 255 270 248 260 275 278 274 85 89 160 183 193 195 180 180 182 184 176 183 175 150 151 137 156 139 129 148 125 127 127 83 93 85 67 32 69 54 52 48 47 42 39 40 10
289 302 288 254 263 271 247 263 246 249 250 262 211 184 195 188 193 190 178 181 190 193 175 175 184 157 151 147 144 141 141 132 135 133 151 78 104 113 112 82 72 69 48 71 62 55 50 43 24
278 280 274 261 254 256 273 264 239 245 253 248 236 202 192 213 190 193 188 184 190 198 168 165 185 162 153 155 142 144 146 134 134 130 137 142 125 109 108 94 77 96 82 84 63 56 57 63 38
282 275 267 223 229 237 185 254 256 230 225 240 225 244 196 206 201 191 184 182 194 203 165 165 181 171 155 155 149 144 137 146 143 134 135 144 121 137 101 99 89 78 103 83 70 71 66 62 53
231 265 264 258 229 227 193 255 238 240 233 224 226 224 230 198 197 196 183 179 182 209 171 164 170 167 157 155 149 141 147 141 140 141 139 154 141 159 126 97 104 86 100 105 84 69 90 69 56
218 241 245 247 252 221 220 232 248 278 253 235 229 216 220 225 201 194 188 177 179 191 182 167 167 167 159 147 139 122 135 141 145 151 143 155 146 170 109 105 129 170 105 110 102 89 80 113 89
270 276 273 265 222 243 239 241 249 240 248 247 239 250 230 245 217 192 186 177 174 182 187 173 172 178 169 159 157 142 157 152 149 149 144 164 147 169 134 130 151 222 136 136 136 128 111 99 146
260 259 260 280 281 258 247 237 242 242 245 252 235 216 221 236 232 199 185 178 178 181 187 176 176 183 182 169 165 148 153 145 145 140 148 163 152 158 155 142 168 140 105 126 146 142 87 18 20
276 257 269 266 276 281 243 264 259 252 260 248 243 236 221 212 218 208 187 185 182 185 184 182 175 175 184 169 153 137 127 123 118 150 161 165 160 159 146 159 147 149 142 165 170 163 167 143 339
274 300 291 269 258 255 169 271 249 244 239 233 233 231 226 222 211 206 190 185 187 190 187 180 175 175 178 168 165 165 164 159 168 164 152 161 162 158 164 154 147 150 149 133 139 130 174 123 146
271 266 274 299 259 258 259 273 257 226 245 242 231 229 224 219 213 210 201 185 186 186 186 183 174 175 175 174 169 166 164 155 148 153 152 155 157 156 162 159 155 163 152 125 148 157 182 158 148
280 292 259 278 270 246 236 229 260 225 232 225 230 238 211 212 211 211 209 183 185 181 182 183 178 177 174 175 169 172 166 157 156 161 157 161 154 151 164 167 158 167 156 141 122 124 135 133 115
254 267 242 223 223 235 226 227 237 242 224 227 222 238 223 198 200 202 205 180 180 178 180 182 182 179 177 177 173 175 172 166 163 161 162 160 161 159 170 164 165 165 163 135 130 127 114 122 125
245 224 235 231 194 232 206 229 245 235 254 261 246 247 264 221 198 199 197 185 174 175 178 180 183 180 178 180 176 177 174 165 165 166 162 162 164 162 158 160 159 168 156 146 135 123 112 97 99
269 234 248 261 287 233 208 245 257 280 223 222 240 237 227 235 219 186 182 168 169 174 178 177 181 182 178 181 172 177 174 166 164 161 159 159 151 153 153 157 161 164 153 152 136 130 128 115 119
222 194 218 218 226 238 244 226 225 204 231 230 230 223 231 224 199 169 156 163 158 171 176 179 182 182 177 176 175 178 172 164 158 156 157 154 151 150 154 160 161 153 151 151 134 133 128 120 116
283 249 221 285 234 253 240 245 340 284 30 317 277 175 316 238 195 170 164 160 150 148 170 175 177 176 172 171 173 174 168 161 155 155 152 150 149 151 157 160 161 149 145 151 132 142 140 131 128
253 270 229 220 225 234 248 276 23 16 62 12 344 6 31 336 305 174 144 150 159 164 166 171 171 170 170 168 169 172 160 156 152 153 152 148 151 156 159 156 160 147 146 152 145 150 148 141 139